Weather Service Report


915 
ASUS44 KEWX 230010
RWREWX
SOUTH TEXAS REGIONAL WEATHER ROUNDUP
NATIONAL WEATHER SERVICE AUSTIN/SAN ANTONIO TX
600 PM CST WED NOV 22 2017

NOTE: "FAIR" INDICATED FEW OR NO CLOUDS BELOW 12,000 FEET WITH NO
SIGNIFICANT WEATHER AND/OR OBSTRUCTIONS TO VISIBILITY.

* - THESE STATIONS ARE NOT NWS OR FAA STATIONS...AND ARE NOT SUBJECT
    TO NWS AND FAA QUALITY CONTROL.
 
TXZ171-172-183>190-230100-
TEXAS HILL COUNTRY AND EDWARDS PLATEAU
  
CITY           SKY/WX    TMP DP  RH WIND       PRES   REMARKS
JUNCTION       CLEAR     54  23  30 N7        30.28R                  
6HR MIN TEMP:  54; 6HR MAX TEMP:  64;                                

*LLANO         CLEAR     52  25  35 CALM      30.32S                  
BURNET         CLEAR     53  20  27 N5        30.30R                  
6HR MIN TEMP:  53; 6HR MAX TEMP:  63;                                

*HORSESHOE BAY CLEAR     55  22  27 N3        30.28S                  
6HR MIN TEMP:  55; 6HR MAX TEMP:  64;                                

*KERRVILLE     CLEAR     54  22  29 N5        30.28R                  
6HR MIN TEMP:  54; 6HR MAX TEMP:  63;                                

*FREDERICKSBRG CLEAR     48  19  32 N3        30.28S                  
6HR MIN TEMP:  48; 6HR MAX TEMP:  62;                                

*ROCKSPRINGS   NOT AVBL                                               
*BOERNE STAGE  CLEAR     55  19  24 N5        30.28R                  
*CASTROVILLE   CLEAR     61  27  27 N7        30.27R                  
HONDO          CLEAR     58  28  32 NE7       30.25S                  
6HR MIN TEMP:  58; 6HR MAX TEMP:  73;                                

*UVALDE        CLEAR     59  33  37 N3        30.26R                  
6HR MIN TEMP:  59; 6HR MAX TEMP:  68;                                

DEL RIO        CLOUDY    61  34  36 NW5       30.25F                  
6HR MIN TEMP:  61; 6HR MAX TEMP:  68;                                

LAUGHLIN AFB   MOCLDY    58  36  44 NW6       30.25F                  
6HR MIN TEMP:  58; 6HR MAX TEMP:  68;                                

CARRIZO SPRGS  CLEAR     59  36  41 CALM      30.24S                  
*EAGLE PASS    CLEAR     59  32  36 NW3       30.25S                  
$$

TXZ173-191>194-202-209-217>225-228-230100-
CENTRAL AND SOUTH CENTRAL TEXAS
  
CITY           SKY/WX    TMP DP  RH WIND       PRES   REMARKS
GEORGETOWN     CLEAR     52  20  28 NW5       30.29                   
6HR MIN TEMP:  52; 6HR MAX TEMP:  64;                                

AUSTIN/BERGSTM PTCLDY    49  26  41 N8        30.27R WCI  45          
6HR MIN TEMP:  49; 6HR MAX TEMP:  65;                                

AUSTIN/MABRY   CLEAR     57  20  23 N5        30.28R                  
6HR MIN TEMP:  57; 6HR MAX TEMP:  66;                                

*AUSTIN/EXEC   CLEAR     54  18  24 N8        30.28R                  
*LAGO VISTA    PTCLDY    53  20  27 N5        30.28S                  
6HR MIN TEMP:  53; 6HR MAX TEMP:  62;                                

SAN MARCOS     CLEAR     54  27  35 N7        30.27R                  
6HR MIN TEMP:  54; 6HR MAX TEMP:  67;                                

NEW BRAUNFELS  CLEAR     55  26  32 N7        30.25R                  
6HR MIN TEMP:  55; 6HR MAX TEMP:  68;                                

RANDOLPH AFB   CLEAR     59  28  30 N6        30.25S                  
6HR MIN TEMP:  59; 6HR MAX TEMP:  67;                                

PT SAN ANTONIO CLEAR     57  30  36 N9        30.23S                  
6HR MIN TEMP:  57; 6HR MAX TEMP:  68;                                

SAN ANTONIO    PTCLDY    60  27  28 N5        30.26S                  
6HR MIN TEMP:  60; 6HR MAX TEMP:  68;                                

STINSON FIELD  CLEAR     62  31  31 N6        30.24S                  
6HR MIN TEMP:  62; 6HR MAX TEMP:  70;                                

*LA GRANGE     CLEAR     58  37  45 CALM      30.24S                  
6HR MIN TEMP:  58; 6HR MAX TEMP:  65;                                

*GIDDINGS      CLEAR     56  32  40 N3        30.27R                  
6HR MIN TEMP:  56; 6HR MAX TEMP:  62;                                

*GONZALES      CLEAR     57  36  45 N5        30.25S                  
6HR MIN TEMP:  57; 6HR MAX TEMP:  67;                                

$$

TXZ163>164-176>182-195>201-210>213-226-227-235-230100-
SOUTHEAST TEXAS
  
CITY           SKY/WX    TMP DP  RH WIND       PRES   REMARKS
COLLEGE STN    CLEAR     55  36  48 N7        30.25R                  
6HR MIN TEMP:  55; 6HR MAX TEMP:  65;                                

*BRYAN         CLEAR     53  34  48 N5        30.27R                  
6HR MIN TEMP:  53; 6HR MAX TEMP:  62;                                

*CALDWELL      CLEAR     53  33  47 N6        30.27R                  
6HR MIN TEMP:  53; 6HR MAX TEMP:  62;                                

*CROCKETT        N/A     52  37  58 CALM      30.27R                  
*BRENHAM       CLEAR     55  38  52 NW7       30.26R                  
6HR MIN TEMP:  55; 6HR MAX TEMP:  64;                                

HUNTSVILLE     CLEAR     55  38  52 CALM      30.24R                  
6HR MIN TEMP:  55; 6HR MAX TEMP:  63;                                

CONROE         CLEAR     53  42  66 N6        30.23R                  
6HR MIN TEMP:  53; 6HR MAX TEMP:  67;                                

HOUSTON BUSH   PTCLDY    60  42  51 N9        30.22R                  
6HR MIN TEMP:  59; 6HR MAX TEMP:  70;                                

HOUSTON HOBBY  PTCLDY    62  45  53 NW13      30.20R                  
6HR MIN TEMP:  62; 6HR MAX TEMP:  69;                                

*HOUSTON SW AP CLEAR     60  45  57 N6        30.22R                  
6HR MIN TEMP:  60; 6HR MAX TEMP:  69;                                

PEARLAND       CLEAR     64  47  53 N9        30.21R                  
6HR MIN TEMP:  64; 6HR MAX TEMP:  71;                                

HOUSTON HOOKS  CLEAR     58  42  55 N6        30.22R                  
6HR MIN TEMP:  58; 6HR MAX TEMP:  67;                                

ELLINGTON FLD  PTCLDY    64  46  52 N9        30.22R                  
SUGAR LAND     CLEAR     61  42  49 N10       30.21R                  
6HR MIN TEMP:  61; 6HR MAX TEMP:  71;                                

*HOUSTON EXEC  CLEAR     55  41  58 N8        30.24R                  
*CLEVELAND MUN CLEAR     54  45  73 CALM      30.23R                  
6HR MIN TEMP:  54; 6HR MAX TEMP:  66;                                

*WHARTON       CLEAR     57  39  50 NW9       30.24R                  
6HR MIN TEMP:  57; 6HR MAX TEMP:  68;                                

*COLUMBUS      FAIR      56  36  47 N3        30.25R                  
6HR MIN TEMP:  56; 6HR MAX TEMP:  65;                                

*EAGLE LAKE    CLEAR     57  39  51 NW5       30.24R                  
6HR MIN TEMP:  57; 6HR MAX TEMP:  67;                                

$$

TXZ214>216-236>238-230100-
THE UPPER TEXAS COAST
  
CITY           SKY/WX    TMP DP  RH WIND       PRES   REMARKS
*ORANGE        CLEAR     58  46  65 N7        30.21R                  
6HR MIN TEMP:  58; 6HR MAX TEMP:  66;                                

PORT ARTHUR    CLEAR     58  44  60 N14       30.19R                  
6HR MIN TEMP:  58; 6HR MAX TEMP:  68;                                

GALVESTON      CLEAR     64  50  60 N18       30.19R                  
6HR MIN TEMP:  64; 6HR MAX TEMP:  69;                                

ANGLETON       CLEAR     63  47  55 N8        30.19R                  
6HR MIN TEMP:  63; 6HR MAX TEMP:  72;                                

*BAY CITY      CLEAR     62  46  54 NW7       30.20R                  
PALACIOS       CLEAR     60  45  57 N9        30.21R                  
6HR MIN TEMP:  60; 6HR MAX TEMP:  71;                                

$$

TXZ229>234-239>247-230100-
TEXAS COASTAL BEND AND RIO GRANDE PLAINS
  
CITY           SKY/WX    TMP DP  RH WIND       PRES   REMARKS
VICTORIA       CLEAR     57  41  55 N8        30.24R                  
6HR MIN TEMP:  57; 6HR MAX TEMP:  71;                                

*BEEVILLE      CLEAR     62  41  45 N6        30.24R                  
6HR MIN TEMP:  62; 6HR MAX TEMP:  71;                                

ROCKPORT       PTCLDY    64  48  56 N13       30.22R                  
6HR MIN TEMP:  64; 6HR MAX TEMP:  71;                                

*PORT ARANSAS  NOT AVBL                                               
*PORT LAVACA   CLEAR     60  44  55 N8        30.23R                  
6HR MIN TEMP:  60; 6HR MAX TEMP:  70;                                

*INGLESIDE     NOT AVBL                                               
CORPUS CHRISTI MOCLDY    67  46  47 N14       30.21R                  
6HR MIN TEMP:  67; 6HR MAX TEMP:  73;                                

CORPUS NAS     PTCLDY    69  49  48 N13       30.20R                  
6HR MIN TEMP:  68; 6HR MAX TEMP:  74;                                

*ROBSTOWN      PTCLDY    66  46  47 N8        30.22R                  
6HR MIN TEMP:  66; 6HR MAX TEMP:  71;                                

ALICE          PTCLDY    65  43  44 N7        30.22R                  
6HR MIN TEMP:  65; 6HR MAX TEMP:  72;                                

KINGSVILLE NAS MOCLDY    64  48  56 NW10      30.21R                  
6HR MIN TEMP:  64; 6HR MAX TEMP:  73;                                

COTULLA        CLEAR     62  36  37 NW5       30.24S                  
6HR MIN TEMP:  62; 6HR MAX TEMP:  70;                                

*FAITH RANCH   CLEAR     59  37  44 N6        30.25S                  
LAREDO         CLEAR     63  42  46 N6        30.25R                  
6HR MIN TEMP:  63; 6HR MAX TEMP:  70;                                

$$

TXZ248>255-230100-
DEEP SOUTH TEXAS
  
CITY           SKY/WX    TMP DP  RH WIND       PRES   REMARKS
BROWNSVILLE    PTCLDY    67  51  56 N7        30.20R                  
6HR MIN TEMP:  67; 6HR MAX TEMP:  73;                                

PORT ISABEL    PTCLDY    64  53  67 N8        30.19R                  
6HR MIN T

Return to Home page


Western Regional Climate Center, wrcc@dri.edu